Location: *
(43.9900°N, 3.4811°E)
Time: 13:56:33
(UTC+00:00)

Okean 2 Rocket - Pass Details

Date: 25 August 2019
Orbit: 618 x 640 km, 82.5° (Epoch: 21 September)

Event Time Altitude Azimuth Distance (km) Brightness Sun altitude
Exits shadow 20:42:52 34° 67° (ENE) 1,019 3.9 -21.1°
Drops below altitude 10° 20:46:11 10° 24° (NNE) 2,000 5.9 -21.6°
Sets 20:48:32 0° 17° (NNE) 2,914 6.8 -21.9°
